Zurück zum Katalog

FENGYUN 1C DEB

AktivSSO
NORAD 41823·DEBRIS·🇨🇳 China

Gestartet May 10, 1999 von Taiyuan Satellite Launch Center

Loading…

Nächste Überflüge (nächste 24 Stunden)

TLE

AktuellSource: Space-Track

Epoche: Sep 14, 2026, 14:29 UTC

1 41823U 99025EYA 26257.60400630  .00001809  00000-0  77931-3 0  9992
2 41823  98.6998 323.5142 0054916 148.3392 212.1110 14.24979410512854

Verfolge FENGYUN 1C DEB in Echtzeit mit AllMySat

Download on the App Store